sat.trackr.live / text

‹ back to catalog

KUIPER-00209

NORAD 67776 · 2026-030N

PAYLOAD ACTIVE UNKNOWN

§ Identity

Operator
Country
US
Launch date
2026-02-12
Launch site
FRGUI
Launch vehicle
Mass (kg)
RCS (m²)

External: N2YO · Heavens-Above · Gunter

§ Orbital elements

Epoch: 2026-09-20T04:14:49.249824Z

Period
97.30 min
Inclination
51.9003°
Eccentricity
0.0000811
Mean motion
14.79934959 rev/d
Perigee alt
629.0 km
Apogee alt
630.1 km
Semi-major
7,007.7 km
B*
2.1767e-4
RAAN
68.1754°
Arg perigee
123.4879°
Mean anomaly
236.6161°
Rev number
3,404

§ Raw data

KUIPER-002091 67776U 26030N   26263.17695891  .00001439  00000+0  21767-3 0  99912 67776  51.9003  68.1754 0000811 123.4879 236.6161 14.79934959 34044

JSON: /api/v1/satellites/67776 · /tle

For live sub-satellite position, see the globe view (requires WebGL).

§ Visibility from observer

Set your observer location to see the next 7 days of passes ≥ 10°. The values pass through the URL so the page stays shareable.

No JS? Fill the form by hand. The geolocation button needs JavaScript.